Flag Weather past 2 weeks in Scranton, Pennsylvania, U.S.A.

Now
14 °F

Clear.


Feels Like: 5 °F
Forecast: 14 / 37 °F
Wind: 6 mph from South

Location: Barre - Scranton - Wilkes-Barre / Scranton International Airport

Current Time: Nov 29, 2014 at 2:34:41 AM

Latest Report: Nov 29, 2014 at 1:54 AM


Visibility: 10 mi

Pressure: 30.27 "Hg

Humidity: 80%

Dew point: 9 °F

Location of ScrantonLocation

Historic Weather in Scranton — Graph

°F

Scranton temperature yesterday

Maximum temperature yesterday: 29 °F (at 1:54 PM)
Minimum temperature yesterday: 15 °F (at 9:54 PM)
Average temperature yesterday: 24 °F

Past Weeks' High & Low Weather Summary

 TemperatureHumidityPressure
High70 °F (Nov 24, 1:54 PM)92% (Nov 17, 3:54 AM)30.48 "Hg (Nov 17, 3:54 AM)
Low15 °F (Nov 28, 9:54 PM)28% (Nov 22, 2:54 PM)29.45 "Hg (Nov 24, 1:54 PM)
Average35 °F59%30.05 "Hg
* Reported Nov 14 12:54 AM — Nov 29 12:54 AM, Scranton, Weather by CustomWeather, © 2014

Note: Actual official high and low records may vary slightly from our data, if they occured in-between our weather recording intervals... More about our weather records

Advertising

Scranton weather history for previous 24 hours

 ConditionsComfort  
Time TempWeatherWind HumidityBarometerVisibility
12:54 AM
Nov 29
15 °FMostly cloudy.7 mph77%30.27 "Hg10 mi
11:54 PM
Nov 28
16 °FClear.7 mph74%30.25 "Hg10 mi
10:54 PM16 °FPassing clouds.6 mph74%30.25 "Hg10 mi
9:54 PM15 °FClear.6 mph77%30.25 "Hg10 mi
8:54 PM16 °FClear.7 mph77%30.25 "Hg10 mi
7:54 PM20 °FClear.7 mph65%30.25 "Hg10 mi
6:54 PM21 °FClear.6 mph65%30.24 "Hg10 mi
5:54 PM21 °FClear.5 mph68%30.23 "Hg10 mi
4:54 PM25 °FClear.3 mph55%30.22 "Hg10 mi
3:54 PM26 °FSunny.12 mph52%30.21 "Hg10 mi
2:54 PM28 °FPassing clouds.16 mph51%30.21 "Hg10 mi
1:54 PM29 °FPartly sunny.10 mph51%30.20 "Hg10 mi
12:54 PM27 °FPassing clouds.13 mph51%30.21 "Hg10 mi
11:54 AM28 °FOvercast.15 mph56%30.22 "Hg10 mi
10:54 AM27 °FPartly sunny.17 mph58%30.23 "Hg10 mi
9:54 AM27 °FSunny.16 mph61%30.23 "Hg10 mi
8:54 AM27 °FPartly sunny.10 mph72%30.22 "Hg10 mi
7:54 AM27 °FPartly sunny.10 mph78%30.20 "Hg10 mi
6:54 AM27 °FPassing clouds.9 mph81%30.16 "Hg9 mi
5:54 AM28 °FLight snow. Mostly cloudy.8 mph81%30.14 "Hg2 mi
4:54 AM27 °FMostly cloudy.6 mph89%30.12 "Hg7 mi
3:54 AM28 °FMostly cloudy.3 mph85%30.09 "Hg10 mi
2:54 AM27 °FMostly cloudy.7 mph85%30.08 "Hg10 mi
Weather by CustomWeather, © 2014

See weather overviewHow to use our weather pages